EW7049 Weather Reports


Display with metric or nautical units.
time (UTC)temp
F
wind
direction
speed
MPH
gust
MPH
rain 1hr
in
rain 24hr
in
rain mn
in
humidity
%
barometer
mb
20260906044502 74 273 0.0 0.0 0.00 0.06 0.00 100 1010.0
20260906041502 74 273 0.0 0.0 0.00 0.06 0.00 100 1010.3
20260906034501 74 122 0.0 0.0 0.00 0.06 0.06 99 1010.4
20260906033002 74 122 0.0 0.0 0.00 0.06 0.06 99 1010.4
20260906031502 74 122 0.0 0.0 0.00 0.06 0.06 99 1010.1
20260906030006 74 122 0.0 0.0 0.00 0.06 0.06 98 1010.1
20260906024503 74 122 0.0 0.0 0.00 0.06 0.06 98 1010.0
20260906023003 74 122 0.0 0.0 0.00 0.06 0.06 97 1010.0
20260906021501 75 122 0.0 0.0 0.00 0.06 0.06 97 1009.6
20260906020002 75 122 0.0 0.0 0.00 0.06 0.06 97 1009.5
20260906014502 75 122 0.0 0.0 0.00 0.06 0.06 97 1009.5
20260906013004 76 122 0.0 0.0 0.00 0.06 0.06 96 1009.5
20260906011503 76 122 0.0 0.0 0.00 0.06 0.06 95 1009.5
20260906010003 76 122 0.0 0.0 0.00 0.06 0.06 94 1009.5
20260906004502 77 122 0.0 0.0 0.00 0.06 0.06 93 1009.5
20260906003003 77 122 0.0 0.0 0.00 0.06 0.06 91 1009.5
20260906001503 78 122 0.0 0.0 0.00 0.06 0.06 90 1009.5
20260906000002 78 122 0.0 0.0 0.00 0.06 0.06 87 1009.5
20260905234459 79 122 0.0 0.0 0.00 0.06 0.06 88 1009.5
20260905233001 79 122 0.0 0.0 0.00 0.06 0.06 86 1009.2
20260905231459 79 122 0.0 0.0 0.00 0.06 0.06 84 1009.3
20260905223000 79 246 0.0 0.0 0.00 0.06 0.06 82 1009.2
20260905221501 79 334 0.0 0.0 0.00 0.06 0.06 82 1009.2
20260905213003 78 273 1.0 2.0 0.00 0.06 0.06 85 1009.6
20260905211503 77 270 0.0 2.0 0.00 0.06 0.06 88 1009.7
20260905210005 78 297 0.0 1.0 0.00 0.06 0.06 90 1010.0
20260905203003 77 272 0.0 2.0 0.00 0.06 0.06 93 1010.1
20260905201502 77 209 0.0 2.0 0.00 0.06 0.06 92 1010.5
20260905194459 78 270 1.0 3.0 0.00 0.06 0.06 94 1011.0
20260905193002 77 270 1.0 3.0 0.00 0.06 0.06 93 1010.7
20260905191500 77 133 1.0 3.0 0.00 0.06 0.06 96 1011.0
20260905190002 77 43 1.0 4.0 0.06 0.06 0.06 96 1011.3
20260905184459 77 291 0.0 0.0 0.06 0.06 0.06 94 1011.6
20260905183000 77 199 1.0 3.0 0.06 0.06 0.06 91 1010.8
20260905181500 80 290 1.0 3.0 0.06 0.06 0.06 81 1011.0
20260905180001 84 152 1.0 3.0 0.00 0.00 0.00 65 1011.6
20260905174501 90 93 3.0 8.0 0.00 0.00 0.00 56 1011.5
20260905173003 92 188 1.0 2.0 0.00 0.00 0.00 59 1010.8
20260905171500 91 234 1.0 3.0 0.00 0.00 0.00 59 1011.2
20260905170004 90 258 2.0 4.0 0.00 0.00 0.00 64 1011.1
20260905161502 88 121 1.0 4.0 0.00 0.00 0.00 66 1012.0
20260905160002 85 279 0.0 1.0 0.00 0.00 0.00 73 1011.9
20260905154500 84 259 0.0 0.0 0.00 0.00 0.00 76 1011.8
20260905153000 84 104 0.0 0.0 0.00 0.00 0.00 77 1012.1
20260905151502 83 151 0.0 0.0 0.00 0.00 0.00 78 1012.2
20260905144503 81 259 0.0 0.0 0.00 0.00 0.00 81 1012.3
20260905143003 80 248 0.0 0.0 0.00 0.00 0.00 82 1012.5
20260905140004 78 86 0.0 0.0 0.00 0.00 0.00 91 1012.5
20260905134501 77 170 0.0 0.0 0.00 0.00 0.00 93 1012.6
20260905133003 76 159 0.0 0.0 0.00 0.00 0.00 96 1012.7
20260905131503 76 136 0.0 0.0 0.00 0.00 0.00 98 1012.8
20260905130003 75 136 0.0 0.0 0.00 0.00 0.00 99 1012.8
20260905124500 74 136 0.0 0.0 0.00 0.00 0.00 100 1012.7
20260905123002 74 136 0.0 0.0 0.00 0.00 0.00 100 1012.7
20260905121502 73 136 0.0 0.0 0.00 0.00 0.00 100 1012.6
20260905120002 73 136 0.0 0.0 0.00 0.00 0.00 100 1012.3
20260905114500 73 136 0.0 0.0 0.00 0.00 0.00 100 1012.2
20260905113002 73 136 0.0 0.0 0.00 0.00 0.00 100 1012.1
20260905111500 73 136 0.0 0.0 0.00 0.00 0.00 100 1011.7
20260905110003 73 136 0.0 0.0 0.00 0.00 0.00 99 1011.6
20260905104500 73 136 0.0 0.0 0.00 0.00 0.00 99 1011.6
20260905103002 73 136 0.0 0.0 0.00 0.00 0.00 99 1011.6
20260905101500 73 136 0.0 0.0 0.00 0.00 0.00 99 1011.5
20260905100001 74 136 0.0 0.0 0.00 0.00 0.00 99 1011.3
20260905094500 74 136 0.0 0.0 0.00 0.00 0.00 99 1011.1
20260905093001 74 136 0.0 0.0 0.00 0.00 0.00 99 1011.0
20260905091503 74 136 0.0 0.0 0.00 0.00 0.00 99 1011.0
20260905084503 74 136 0.0 0.0 0.00 0.00 0.00 99 1011.1
20260905080004 75 136 0.0 0.0 0.00 0.00 0.00 98 1011.3
20260905073000 75 136 0.0 0.0 0.00 0.00 0.00 98 1011.6
20260905071500 75 136 0.0 0.0 0.00 0.00 0.00 98 1011.5
20260905070003 75 136 0.0 0.0 0.00 0.00 0.00 97 1011.6
20260905064459 75 136 0.0 0.0 0.00 0.00 0.00 97 1011.6
20260905063003 75 136 0.0 0.0 0.00 0.00 0.00 97 1011.7
20260905060002 76 136 0.0 0.0 0.00 0.00 0.00 97 1011.6
20260905054500 76 136 0.0 0.0 0.00 0.00 0.00 96 1011.6
20260905051504 76 136 0.0 0.0 0.00 0.00 0.00 96 1011.7